TimeEST,TemperatureF,Dew PointF,Humidity,Sea Level PressureIn,VisibilityMPH,Wind Direction,Wind SpeedMPH,Gust SpeedMPH,PrecipitationIn,Events,Conditions,WindDirDegrees,DateUTC
12:54 AM,36.0,21.9,57,30.30,10.0,Calm,Calm,-,N/A,,Mostly Cloudy,0,2012-12-06 05:54:00
1:54 AM,34.0,21.9,61,30.32,10.0,Calm,Calm,-,N/A,,Scattered Clouds,0,2012-12-06 06:54:00
2:54 AM,32.0,21.9,66,30.32,10.0,Calm,Calm,-,N/A,,Partly Cloudy,0,2012-12-06 07:54:00
3:54 AM,30.9,21.9,69,30.33,10.0,Calm,Calm,-,N/A,,Clear,0,2012-12-06 08:54:00
4:54 AM,30.0,21.9,72,30.33,10.0,NW,3.5,-,N/A,,Clear,320,2012-12-06 09:54:00
5:54 AM,28.0,21.9,78,30.35,10.0,Calm,Calm,-,N/A,,Partly Cloudy,0,2012-12-06 10:54:00
6:54 AM,30.0,21.0,69,30.36,10.0,North,3.5,-,N/A,,Scattered Clouds,350,2012-12-06 11:54:00
7:54 AM,33.1,21.0,61,30.37,10.0,North,5.8,-,N/A,,Mostly Cloudy,10,2012-12-06 12:54:00
8:54 AM,35.1,21.0,57,30.39,10.0,NE,6.9,-,N/A,,Scattered Clouds,50,2012-12-06 13:54:00
9:54 AM,35.1,21.0,57,30.39,10.0,ENE,6.9,-,N/A,,Mostly Cloudy,60,2012-12-06 14:54:00
10:54 AM,37.0,19.9,50,30.38,10.0,ESE,5.8,-,N/A,,Scattered Clouds,110,2012-12-06 15:54:00
11:54 AM,37.9,19.9,48,30.35,10.0,Calm,Calm,-,N/A,,Mostly Cloudy,0,2012-12-06 16:54:00
12:54 PM,39.9,21.0,47,30.32,10.0,NNE,3.5,-,N/A,,Mostly Cloudy,20,2012-12-06 17:54:00
1:54 PM,41.0,21.0,45,30.30,10.0,NE,4.6,-,N/A,,Mostly Cloudy,40,2012-12-06 18:54:00
2:54 PM,41.0,21.9,47,30.29,10.0,East,4.6,-,N/A,,Mostly Cloudy,80,2012-12-06 19:54:00
3:54 PM,39.9,25.0,55,30.29,10.0,East,8.1,-,N/A,,Mostly Cloudy,80,2012-12-06 20:54:00
4:54 PM,37.0,24.1,59,30.29,10.0,ESE,3.5,-,N/A,,Mostly Cloudy,120,2012-12-06 21:54:00
5:54 PM,35.1,23.0,61,30.29,10.0,Calm,Calm,-,N/A,,Mostly Cloudy,0,2012-12-06 22:54:00
6:54 PM,33.1,23.0,66,30.29,10.0,Calm,Calm,-,N/A,,Mostly Cloudy,0,2012-12-06 23:54:00
7:54 PM,33.1,23.0,66,30.29,10.0,Calm,Calm,-,N/A,,Mostly Cloudy,0,2012-12-07 00:54:00
8:54 PM,32.0,24.8,75,30.27,10.0,ESE,3.5,-,N/A,,Mostly Cloudy,120,2012-12-07 01:54:00
9:54 PM,30.0,24.1,79,30.28,10.0,Calm,Calm,-,N/A,,Mostly Cloudy,0,2012-12-07 02:54:00
10:54 PM,30.9,25.0,79,30.29,10.0,Calm,Calm,-,N/A,,Mostly Cloudy,0,2012-12-07 03:54:00
11:54 PM,30.9,24.1,76,30.27,10.0,Calm,Calm,-,N/A,,Overcast,0,2012-12-07 04:54:00